Regional Weather Roundup
Issued by NWS Grand Forks, ND

Home | Current Version | Previous Version | Text Only | Print | Product List | Glossary On
Versions: 1 2 3 4 5 6 7 8 9 10 11 12 13 14 15 16 17 18 19 20 21 22 23 24 25 26 27 28 29 30 31 32 33 34 35 36 37 38 39 40 41 42 43 44 45 46 47 48 49 50
100
ASUS43 KFGF 281431
RWRFGF
PRAIRIE TO PINES  WEATHER ROUNDUP
NATIONAL WEATHER SERVICE EASTERN NORTH DAKOTA/GRAND FORKS ND
900 AM CDT SUN AUG 28 2016

 **SATELLITE DATA USED TO AUGMENT SKY COVER AT AUTOMATED STATIONS**
 *****  WEATHER ACROSS EASTERN NORTH DAKOTA  *****

CITY           SKY/WX    TMP DP  RH WIND       PRES   REMARKS
GRAND FORKS    SUNNY     64  60  87 S12       29.99S
GRAND FRKS AFB SUNNY     64  61  91 S8        29.99S
GRAND FRKS NWS   N/A     64 N/A N/A S10         N/A
DEVILS LAKE    SUNNY     66  63  90 SE15      29.95S
FARGO          SUNNY     68  61  78 S14       30.01S
WAHPETON ARPT  SUNNY     66  59  77 SE15      30.04S
$$

 ***** WEATHER ACROSS CENTRAL AND WESTERN NORTH DAKOTA  *****

CITY           SKY/WX    TMP DP  RH WIND       PRES   REMARKS
BISMARCK       SUNNY     65  61  87 CALM      29.91S
MINOT          SUNNY     69  56  62 CALM      29.87R
JAMESTOWN      CLOUDY    65  62  90 SE12      29.95F
MINOT AFB      SUNNY     64  54  69 S5        29.86S
GARRISON         N/A     66  59  78 SE6       29.90R
WILLISTON      SUNNY     67  53  61 SW3       29.85R
DICKINSON      SUNNY     60  54  80 S5        29.89S
HETTINGER      SUNNY     60  55  83 CALM      29.93R
$$

 *****  OTHER AIRPORT OBSERVATIONS IN OUR AREA  *****

CITY           SKY/WX    TMP DP  RH WIND       PRES   REMARKS
WALHALLA       FAIR      57  57 100 SE12      29.97S
GRAFTON AIRPOR CLOUDY    63  63 100 S12       30.01S
VALLEY CITY AR FAIR      66  66 100 SE13      29.99F
CANDO          FAIR      66  66 100 S12G18    29.95F
CAVALIER APRT  CLOUDY    59  59 100 S8        29.98S FOG
GWINNER        FAIR      72  66  83 SE8       29.99S
SHEYENNE NWR     N/A     66  60  81 SE9       29.95S
ROLLA          FAIR      61  61 100 S10       29.95R
 ***** THE ABOVE OBSERVATIONS ARE NON NWS ARE NOT QUALITY
       CONTROLLED AND MAY MIS-REPORT RAIN FOR SNOW...
$$

  *****  WEATHER ACROSS NORTHERN MINNESOTA  *****

CITY           SKY/WX    TMP DP  RH WIND       PRES   REMARKS
FLAG ISLAND    CLOUDY    63  61  94 S5        30.07S FOG
WARROAD        SUNNY     63  59  88 SE10      30.07S
ROSEAU         SUNNY     64  59  82 S9        30.05F
HALLOCK        SUNNY     66  63  88 S13       29.99F
THF RVR FALLS  SUNNY     64  61  90 SE10      30.04F
BAUDETTE       FOG       59  58  96 SE7       30.10R VSB 1/2
WASKISH          N/A     63  61  94 SE7       30.10F FOG
CROOKSTON      SUNNY     66  63  88 S12       30.02F
STEPHEN NDAWN    N/A     66  63  88 S12         N/A
GREENBUSH NDAW   N/A     64  63  94 S10         N/A
$$
  *****  WEATHER ACROSS CENTRAL AND WEST MINNESOTA  *****

CITY           SKY/WX    TMP DP  RH WIND       PRES   REMARKS
FOSSTON        SUNNY     64  63  94 SE8       30.07F FOG
BEMIDJI        CLOUDY    60  60 100 SE7       30.11S FOG
PARK RAPIDS    CLOUDY    62  60  93 SE10      30.11S FOG
ELBOW LAKE     FAIR      66  63  87 E16       30.07S
WADENA         CLOUDY    63  61  94 SE8       30.10S FOG
DETROIT LAKES  MOSUNNY   64  63  94 SE13      30.08S
MOORHEAD       SUNNY     68  61  77 SE15      30.03S
FERGUS FALLS   SUNNY     68  64  88 SE12      30.07S
MORRIS MN      CLOUDY    64  63  94 SE8       30.06F
STAPLES        CLOUDY    61  61 100 SE5       30.11F
$$
  *****  WEATHER ELSEWHERE ACROSS MINNESOTA  *****

CITY           SKY/WX    TMP DP  RH WIND       PRES   REMARKS
DULUTH         CLOUDY    60  59  96 SW5       30.17S FOG
INTRNTL FALLS  CLOUDY    59  58  96 VRB5      30.13R FOG
ELY            CLOUDY    57  55  94 SW6       30.16S
CLOQUET        CLOUDY    61  57  88 CALM      30.16F FOG
WHEATON        SUNNY     68  64  88 SE9       30.05S
BRAINERD       CLOUDY    64  63  96 S6        30.14R FOG
HIBBING        FOG       57  57 100 S6        30.16S VSB 1
ALEXANDRIA     CLOUDY    63  62  97 SE7       30.11R
SAINT CLOUD    LGT RAIN  60  60 100 E6        30.12S VSB 1/2
MINNEAPOLIS    CLOUDY    64  63  96 SE3       30.16S FOG
$$

  *****  WEATHER ACROSS SOUTH DAKOTA  *****

CITY           SKY/WX    TMP DP  RH WIND       PRES   REMARKS
SIOUX FALLS    MOSUNNY   70  67  90 SE7       30.08S
BROOKINGS      MOSUNNY   68  65  90 SE15      30.07S
WATERTOWN      SUNNY     71  64  78 SE14      30.05S
HURON          SUNNY     71  66  84 SE13G20   29.99S
SISSETON         N/A     66  60  81 S16       30.02S
ABERDEEN       SUNNY     71  65  81 SE14G23   29.97F
MITCHELL       SUNNY     71  66  84 SE15G22   30.02R
PIERRE         SUNNY     71  64  78 SE10      29.92S
MOBRIDGE       SUNNY     72  63  73 SE14      29.89S
RAPID CITY     SUNNY     65  56  72 CALM      29.96R
$$

  *****  SOME WEATHER IN NEARBY STATES *****

CITY           SKY/WX    TMP DP  RH WIND       PRES   REMARKS
GLASGOW MT     PTSUNNY   67  48  50 VRB6      29.85R
GREAT FALLS MT MOSUNNY   67  41  38 W13       29.96R
CHEYENNE WY    CLOUDY    62  34  35 W10       30.22R
SCOTTSBLUFF NE SUNNY     62  57  83 E3        30.09R
OMAHA NE       PTSUNNY   74  68  81 SE5       30.10R
DES MOINES IA  MOSUNNY   75  69  81 SE6       30.14R
DAVENPORT IA   SUNNY     74  70  87 SE6       30.19R
CHICAGO IL     MOSUNNY   76  70  82 E6        30.19S
EAU CLAIRE WI  CLOUDY    65  63  93 S5        30.19R
LA CROSSE WI   CLOUDY    68  67  96 SE5       30.19R FOG
$$

  *****  SOME NATIONAL WEATHER *****

CITY           SKY/WX    TMP DP  RH WIND       PRES   REMARKS
LA GUARDIA NY  FAIR      81  67  62 NE7       30.26S
RALEIGH NC     PTSUNNY   77  71  82 NE8       30.22R
ATLANTA GA     FAIR      79  72  79 NE7       30.19R
NEW ORLEANS LA FAIR      84  79  85 NE10      29.99S HX  96
OKLAHOMA CITY  FAIR      77  71  82 S7        30.11R
ALBUQUERQUE NM PTSUNNY   59  50  72 N8        30.28R
SALT LAKE CITY SUNNY     69  45  41 S13       30.13R
LOS ANGELES CA CLEAR     65  60  84 SW5       30.01R
BOISE ID       CLEAR     60  34  37 SE5       30.07R
SEATTLE WA     MOCLDY    55  49  80 S5        30.08R
$$

*** WEATHER ACROSS MANITOBA...SASKATCHEWAN AND ONTARIO ***
                ***ONTARIO***

CITY           SKY/WX    TMP DP  RH WIND       PRES   REMARKS
GERALDTON      MOSUNNY   59  55  88 NW2       30.14R
THUNDER BAY    MOSUNNY   61  57  88 W5        30.14F
SIOUX LOOKOUT  PTSUNNY   59  55  88 SW3       30.12R
TORONTO        PTSUNNY   79  64  61 W7        30.14S
BIG TROUT LK   SUNNY     63  57  82 W6        30.05R
PICKLE LAKE    PTSUNNY   61  55  82 VRB2      30.10R
DRYDEN         CLOUDY    59  55  88 SW6       30.12
KENORA         CLOUDY    57  57 100 S9        30.10S FOG
$$
                *** MANITOBA***

CITY           SKY/WX    TMP DP  RH WIND       PRES   REMARKS
BRANDON        MOSUNNY   61  57  88 SE10      29.89S
DAUPHIN        SUNNY     64  57  77 E7        29.82F
ISLAND LAKE    MOSUNNY   63  59  88 S5        30.00S
PILOT MOUND      N/A     64  61  88 SE13        N/A
THE PAS        CLOUDY    63  57  82 SE14      29.76F
THOMPSON       PTSUNNY   59  57  94 VRB2      29.91S
WINNIPEG       MOSUNNY   61  57  88 S12       29.98F
LYNN LAKE      CLOUDY    59  55  88 MISG      29.80F
CHURCHILL      PTSUNNY   55  54  94 E7        30.00F
GILLAM         MOSUNNY   57  55  94 SE3       29.96S
$$
                ***SASKATCHEWAN***

CITY           SKY/WX    TMP DP  RH WIND       PRES   REMARKS
ESTEVAN        PTSUNNY   64  55  72 S6        29.82R
KINDERSLEY     PTSUNNY   54  50  87 NW12G21   29.89R
LLOYDMINSTER   LGT RAIN  50  48  93 W22G29    29.80R
PRINCE ALBERT  MOSUNNY   61  55  82 W15       29.67R
REGINA         CLOUDY    61  52  72 W3        29.81R
YORKTON        PTSUNNY   59  50  72 S15       29.77S
N. BATTLEFORD  NOT AVBL
LA RONGE       LGT RAIN  57  57 100 E8        29.63R
SASKATOON      MOSUNNY   61  55  82 W8        29.78R
SWIFT CURRENT  CLOUDY    55  54  94 NW14      29.89R
$$
NOTE: THESE ARE AUTOMATED STATIONS WITH LIMITED QUALITY CONTROL
      "FAIR" INDICATES FEW OR NO CLOUDS BELOW 12,000 FEET WITH NO
      SIGNIFICANT WEATHER AND/OR OBSTRUCTIONS TO VISIBILITY.
      SKY/WX - SKY CONDITION AND SIGNIFICANT WEATHER.
      TMP - AIR TEMPERATURE.    DP   - DEWPOINT TEMPERATURE.
      RH  - RELATIVE HUMIDITY.  PRES - PRESSURE.
      HX  - HEAT INDEX.         WCI  - WIND CHILL INDEX.
$




USA.gov is the U.S. government's official web portal to all federal, state and local government web resources and services.